Lapse_Rate
4.1 3.1 2.4 1.3 0.9 0.2 -0.1 -0.7 -1.1 -1.1 -1.3 -1.2 -1.2 -0.8 -0.6 -0.8 0.9 6.9 7.8 5.1 3.8 1.2 1.1 7.6 8.1 8.1 8.2 8.3 8.5 8.4 6.5 6.5 6.5 6.5 6.5 7.3 6.6 8.0 8.4 7.7 8.1 8.4 8.4 8.7 8.0
3.6 3.7 3.1 2.0 1.5 1.0 0.2 -0.6 -1.0 -1.1 -1.2 -1.4 -1.3 -0.5 -0.3 -0.8 5.5 8.9 5.1 3.7 2.7 1.8 7.0 8.0 8.3 8.6 8.0 7.8 7.9 6.9 6.5 6.5 6.7 6.7 6.5 7.1 7.2 7.4 7.2 7.3 7.5 8.0 8.7 8.9 9.0
3.8 3.6 3.5 2.8 2.2 1.3 0.6 -0.3 -0.9 -0.9 -1.0 -1.2 -1.3 -0.6 -0.1 0.9 7.6 8.6 5.2 3.6 2.4 3.4 6.3 6.6 7.3 8.3 7.4 7.8 7.5 7.0 6.5 6.6 6.9 7.5 7.6 7.1 7.1 7.8 7.1 6.5 7.7 7.7 8.3 8.8 8.7
4.1 3.6 3.6 3.4 2.8 1.8 0.7 0.0 -0.2 -0.5 -0.4 -0.5 -0.7 -0.6 0.2 5.6 6.5 9.3 5.2 3.7 3.6 5.7 6.9 8.4 8.4 7.5 6.8 6.5 7.6 6.6 7.1 7.1 7.3 7.6 7.4 6.9 7.6 7.2 7.6 7.5 8.4 8.6 8.7 8.8 8.7
4.2 3.5 3.5 3.3 3.1 2.0 1.0 0.5 0.0 -0.1 -0.3 -0.4 -0.1 0.3 4.5 8.2 8.1 8.6 5.5 6.9 7.8 8.2 8.0 8.3 7.7 7.5 6.5 6.9 7.1 6.5 6.8 7.4 7.6 7.6 7.7 7.7 7.0 7.0 7.4 8.4 8.7 8.7 8.6 8.6 8.7
4.0 3.5 3.5 3.2 2.9 2.0 0.9 0.8 0.2 -0.1 -0.2 0.1 0.6 0.6 7.1 6.9 9.2 9.0 7.7 8.5 8.1 9.2 8.8 8.7 8.1 8.2 7.4 7.0 6.7 7.2 7.1 7.2 7.5 7.4 7.6 6.9 7.0 7.3 7.8 8.6 8.4 8.4 8.4 8.6 8.7
4.1 3.6 3.3 3.1 2.7 1.7 1.0 0.8 0.6 0.7 0.8 0.7 0.9 4.0 8.5 8.0 9.1 9.6 8.3 8.0 7.9 9.0 8.6 8.8 8.8 8.0 7.8 6.7 7.8 7.3 6.5 6.5 7.1 7.3 6.8 7.5 6.5 6.5 8.1 8.4 8.0 8.2 8.4 8.6 8.7
4.1 3.7 3.1 2.8 2.3 1.2 1.0 0.8 1.0 1.8 1.8 1.5 1.4 5.7 7.8 9.0 9.3 9.5 9.9 9.4 9.0 8.9 9.2 8.5 9.1 8.3 7.7 8.0 7.2 6.5 6.5 6.5 6.5 7.0 7.2 7.1 6.5 6.9 8.2 8.1 7.8 8.1 8.4 8.5 8.7
4.2 3.6 3.0 2.5 1.6 0.8 0.7 0.8 2.4 2.0 2.1 2.3 6.0 8.1 7.5 9.1 9.0 9.3 8.8 8.8 9.2 9.3 9.0 8.4 8.7 7.8 7.6 6.5 6.5 6.5 6.5 6.5 6.5 7.2 6.5 6.5 6.5 7.0 8.1 7.9 7.7 8.1 8.3 8.5 8.6
4.1 3.5 2.8 2.5 1.1 0.6 0.6 1.2 3.4 3.8 5.1 5.9 6.8 7.9 8.4 7.9 8.6 8.7 9.3 8.8 8.6 8.5 8.2 8.0 7.6 6.5 6.5 6.5 6.5 6.5 6.5 6.5 6.5 6.5 6.5 6.5 6.5 6.7 7.8 7.8 7.6 8.1 8.3 8.4 8.6
3.7 3.3 2.5 2.2 1.0 0.5 3.7 8.0 8.0 8.1 8.7 7.7 7.8 7.7 8.2 9.0 8.9 8.9 8.7 8.9 8.6 7.9 6.5 7.2 6.5 6.5 6.5 6.5 6.5 6.5 6.5 6.5 6.5 6.5 6.5 6.5 6.5 6.5 7.5 7.7 7.6 7.9 8.1 8.4 8.6
3.4 3.0 2.4 1.8 0.9 1.2 4.3 7.3 3.7 5.6 7.2 7.7 8.0 8.4 7.9 8.1 7.7 8.5 9.3 7.6 7.2 6.5 6.8 6.5 6.5 6.5 6.5 6.5 6.5 6.5 6.5 6.5 6.5 6.5 6.5 6.5 6.5 6.5 7.1 7.3 7.8 7.9 8.1 8.3 8.6
3.1 2.8 2.3 1.8 1.6 3.9 5.1 3.6 3.1 4.1 7.2 7.6 8.2 8.1 8.2 8.7 7.6 7.8 8.6 7.9 6.8 6.5 6.5 6.5 6.5 6.8 6.5 6.5 6.5 6.5 6.5 6.5 6.5 6.5 6.5 6.5 6.5 6.5 6.7 7.5 7.9 8.2 8.4 8.6 8.6
3.0 2.7 2.3 1.5 4.1 5.4 5.9 3.8 3.6 3.9 6.5 6.5 7.0 7.8 8.3 8.3 7.1 8.8 8.8 7.9 6.9 6.5 6.5 6.5 6.7 6.5 6.5 6.5 6.5 6.5 6.5 6.5 6.5 6.5 6.5 6.5 6.5 6.5 6.5 6.5 7.0 7.6 8.0 8.3 8.6
3.1 2.9 2.5 2.1 5.7 8.5 5.1 3.9 3.9 4.9 6.5 6.5 6.9 8.7 8.4 7.3 7.5 7.6 8.9 8.0 6.5 6.5 6.5 6.5 6.5 6.5 6.5 6.5 6.5 6.5 6.5 6.5 6.5 6.5 6.5 6.5 6.5 6.5 6.5 6.5 6.5 7.3 7.8 8.2 8.6
3.2 3.1 2.5 5.4 6.3 5.8 4.7 4.1 5.0 6.5 6.5 6.5 7.0 6.6 6.7 7.2 7.2 7.8 7.7 8.4 7.9 6.5 6.5 6.5 7.4 6.6 6.5 6.5 6.5 6.5 6.5 6.5 6.5 6.5 6.5 6.5 6.5 6.5 6.5 6.5 6.5 7.3 7.7 8.1 8.5
3.4 3.2 3.3 4.6 8.5 5.2 4.8 7.2 6.5 6.5 6.5 6.5 6.5 6.5 6.5 6.5 6.5 6.6 6.5 6.5 6.5 6.5 6.5 6.5 6.5 6.7 7.0 6.5 6.5 6.5 6.5 6.5 6.5 6.5 6.5 6.5 6.5 6.5 6.5 6.5 6.8 7.0 7.7 8.2 8.6
3.4 2.9 4.7 5.3 5.2 5.2 7.0 6.7 6.5 6.5 6.5 6.5 6.5 6.5 6.5 6.5 6.5 6.5 6.5 6.5 6.5 6.5 6.5 6.5 6.5 6.5 6.6 6.5 6.5 6.5 6.5 6.5 6.5 6.5 6.5 6.5 6.5 6.5 6.5 7.2 7.5 7.8 8.0 8.3 8.5
3.6 6.9 6.4 6.1 4.5 5.8 8.0 6.5 6.5 6.5 6.5 6.5 6.5 6.5 6.5 6.5 6.5 6.5 6.5 6.5 6.5 6.5 6.5 6.5 6.5 6.5 6.5 6.7 6.5 6.5 6.5 6.5 6.5 6.5 6.5 6.5 6.5 6.5 6.5 6.6 7.1 7.4 7.7 7.9 8.3
7.9 7.6 8.9 4.7 5.0 7.3 6.7 6.5 6.5 6.7 6.6 6.5 6.5 6.5 6.5 6.5 6.5 6.5 6.5 6.5 6.5 6.7 7.0 6.5 6.5 6.5 6.5 6.9 6.7 6.5 6.5 6.5 6.5 6.5 6.5 6.5 6.5 6.5 6.5 6.5 6.5 6.9 7.3 7.9 8.3
8.4 8.0 7.0 4.7 6.7 8.1 6.5 6.5 6.5 7.3 7.2 6.5 6.5 6.5 6.5 6.5 6.5 6.5 6.5 6.5 6.6 6.5 6.9 6.5 6.5 6.5 6.5 6.5 6.5 6.5 6.5 6.5 6.5 6.5 6.5 6.5 6.5 6.5 6.5 6.5 6.5 7.1 7.5 7.9 8.2
8.7 6.6 7.0 6.5 7.0 6.9 6.5 6.5 6.8 6.8 7.4 6.6 6.6 6.5 6.5 6.5 6.5 6.5 6.5 6.5 7.2 7.0 6.5 6.5 6.5 6.5 6.5 6.5 6.6 6.5 6.5 6.5 6.5 6.5 6.5 6.5 6.5 6.5 6.5 6.9 7.2 7.2 7.6 8.1 8.4
7.7 7.6 7.2 7.1 6.5 6.5 6.7 6.5 6.9 6.5 6.5 6.5 6.5 6.5 6.5 6.5 6.5 6.5 6.5 7.0 7.3 6.6 6.5 6.5 6.5 6.5 6.5 6.5 6.5 6.5 6.5 6.5 6.5 6.5 6.5 6.5 6.5 6.7 7.0 6.9 7.3 7.4 7.7 8.0 8.3
7.5 6.5 7.6 8.2 7.7 6.6 6.5 6.5 6.5 7.2 6.8 6.9 6.5 6.7 6.5 6.5 6.5 6.5 6.5 6.7 7.3 7.1 6.5 6.8 6.5 6.5 6.5 6.5 6.5 6.5 6.5 6.5 6.5 6.5 6.5 6.5 6.5 6.5 6.5 6.5 7.1 7.5 7.8 8.1 8.2
7.5 6.8 7.5 6.5 6.6 6.5 6.6 6.5 6.5 6.5 6.9 7.2 6.5 6.5 6.5 6.5 6.5 6.5 6.5 6.5 6.9 7.1 7.0 6.5 6.5 6.5 6.5 6.5 6.5 6.5 6.5 6.5 6.5 6.5 6.5 6.5 6.5 6.5 6.5 6.6 7.2 7.6 7.9 7.9 8.0
6.9 6.9 7.9 7.0 7.2 6.6 6.5 6.5 6.5 6.5 6.5 6.5 6.5 6.5 6.5 6.5 6.5 6.5 6.5 6.5 6.5 6.8 6.5 6.6 6.5 6.5 6.5 6.5 6.5 6.5 6.5 6.5 6.5 6.5 6.5 6.5 6.5 6.8 7.2 7.5 7.3 7.5 7.7 7.7 8.0
8.9 7.7 8.0 6.8 6.6 6.5 6.5 6.5 6.5 6.6 6.8 7.0 6.6 6.5 6.5 6.5 7.1 7.4 7.4 7.3 7.0 6.5 6.5 6.5 6.5 6.5 6.5 6.5 6.5 6.5 6.5 6.5 6.5 6.5 6.5 6.5 6.5 6.8 6.6 7.0 7.3 7.5 7.8 7.8 8.1
Wind_Speed
17 17 17 17 16 16 16 17 17 17 17 18 18 18 18 21 21 6 8 9 10 20 15 10 4 3 3 2 2 2 6 4 3 3 7 7 9 10 10 8 13 11 14 12 7
17 17 19 18 17 17 17 17 17 18 18 17 17 17 16 16 5 10 5 16 16 15 7 6 3 5 4 3 1 3 5 4 3 6 6 6 9 10 7 11 14 18 19 7 1
17 18 19 19 19 18 18 19 19 19 19 17 15 14 14 11 5 5 16 19 16 13 5 4 2 2 4 3 2 1 1 6 5 9 9 9 7 8 8 10 16 19 20 18 1
18 19 20 19 20 20 20 20 20 19 18 16 13 12 14 5 2 6 19 17 12 10 3 1 3 5 4 5 3 7 6 3 6 6 7 9 6 13 16 11 12 14 14 16 13
19 20 21 20 20 21 21 22 21 19 17 14 11 11 6 4 4 9 16 10 4 3 3 2 3 4 7 6 6 7 6 7 7 4 13 8 5 5 14 16 14 13 13 15 15
20 21 22 22 21 21 22 22 20 18 14 11 9 11 4 4 5 9 9 5 6 4 8 4 4 6 8 6 2 4 5 8 8 9 9 12 3 3 17 19 16 14 14 14 14
20 22 23 23 22 23 23 22 19 13 8 8 7 4 7 6 4 7 7 5 4 4 9 7 4 1 6 9 5 5 6 4 14 11 6 11 9 13 18 16 16 16 14 14 14
21 22 23 24 24 25 25 22 15 10 7 6 6 4 5 2 2 8 4 6 7 6 8 5 6 9 4 9 5 4 3 6 12 15 7 11 10 18 19 18 19 19 17 15 16
21 22 23 24 25 26 26 22 9 10 7 8 4 3 7 1 4 6 7 4 8 8 7 4 6 5 6 9 7 1 7 6 7 17 4 12 5 14 15 16 18 18 18 18 18
21 23 24 24 25 27 27 9 5 8 4 3 2 6 3 4 4 4 4 4 4 5 6 4 4 7 6 6 4 8 8 9 9 11 14 16 16 17 18 18 19 19 20 20 21
21 24 25 24 25 25 12 3 4 4 4 4 4 6 7 2 1 8 4 7 4 4 6 5 9 11 11 12 12 11 12 14 11 6 8 15 17 18 20 21 22 21 21 22 24
21 23 25 25 26 18 6 2 4 5 8 3 3 6 2 2 4 10 4 2 2 10 11 10 14 8 8 8 9 9 11 10 11 8 11 14 17 17 18 20 21 22 23 23 24
19 22 24 27 25 4 5 5 4 3 4 5 3 4 3 2 5 8 4 6 11 10 6 9 10 7 7 9 10 9 10 9 9 7 8 8 16 11 13 17 18 21 21 22 23
18 19 22 32 6 3 3 4 3 3 5 9 6 3 3 3 4 6 5 2 3 15 15 12 6 7 7 8 3 8 5 3 4 8 3 4 5 9 7 13 16 16 17 19 20
17 17 19 13 5 1 3 4 2 3 4 11 6 2 3 1 5 6 8 5 6 7 5 6 8 7 8 4 2 5 3 0 3 8 9 5 3 4 4 11 13 14 15 16 17
16 17 18 3 3 3 5 1 2 2 5 8 6 8 8 4 3 4 4 8 6 15 16 11 5 4 4 1 1 1 6 6 5 4 3 4 4 6 4 7 11 13 13 15 16
16 17 15 7 2 5 3 3 3 4 5 9 9 10 9 7 5 3 7 7 5 9 8 11 5 5 2 6 2 5 8 4 5 5 3 2 0 8 2 6 8 11 14 16 16
14 19 6 6 2 5 3 3 6 2 9 4 10 12 7 8 4 6 7 7 4 3 11 7 7 3 2 2 2 4 2 2 4 3 3 4 4 6 4 6 7 9 11 14 16
13 5 4 2 5 3 5 3 5 7 9 14 15 13 6 7 4 6 4 4 2 2 2 6 5 4 2 1 4 4 3 2 3 2 3 5 5 7 3 4 6 8 10 12 14
5 4 5 6 5 4 5 6 4 5 10 20 9 11 11 14 10 9 9 4 5 0 4 4 7 3 5 5 4 4 4 3 2 4 3 6 3 3 5 2 4 6 8 10 11
4 4 5 6 4 5 4 6 4 10 11 13 8 8 8 10 9 9 7 6 6 5 2 6 2 6 7 3 5 6 5 1 1 3 2 2 3 5 4 1 3 5 6 8 10
4 4 4 5 7 3 4 5 5 15 8 4 5 7 13 12 8 6 8 4 7 6 5 1 2 6 4 1 1 1 2 3 4 5 2 4 0 8 5 1 4 4 4 7 9
3 3 3 5 6 4 4 6 8 14 12 8 7 4 7 10 6 9 9 6 9 4 5 5 3 6 6 4 3 6 6 3 3 1 9 3 4 9 7 1 3 6 4 6 8
3 4 4 7 4 9 10 11 10 8 11 6 7 8 11 8 4 11 9 7 7 6 4 1 3 2 1 5 6 7 12 10 7 4 4 10 2 11 12 7 6 5 5 7 9
4 5 6 7 8 12 13 15 15 11 9 10 5 8 11 7 8 8 10 13 6 7 3 2 3 4 3 3 3 5 12 14 15 12 7 2 6 4 5 7 4 4 6 8 9
4 4 4 4 7 22 13 12 22 13 17 16 8 15 12 7 7 15 15 10 7 9 7 5 4 3 2 4 9 11 15 17 17 17 17 17 17 13 3 4 3 5 6 9 10
9 3 5 7 10 15 14 16 21 15 8 8 12 16 10 9 6 14 6 11 12 13 10 10 6 5 2 3 4 9 19 19 16 10 15 14 10 7 7 6 5 5 7 8 11
Wind_Direction
342 337 337 337 335 332 327 326 325 322 321 320 322 327 331 332 316 192 45 336 301 312 312 293 239 137 165 111 344 272 235 199 121 216 95 28 4 18 334 339 71 58 37 360 116
339 337 333 332 330 328 324 323 320 319 317 318 321 323 326 328 284 65 15 332 328 331 325 342 72 152 131 136 77 262 258 82 33 42 3 354 353 2 354 54 7 356 350 20 196
337 334 330 329 326 324 322 320 317 316 313 313 315 316 315 306 244 20 358 340 330 319 284 303 285 173 138 157 59 37 71 143 71 14 343 341 15 2 7 41 12 2 359 3 331
338 335 332 328 324 323 321 317 314 311 306 305 309 312 311 249 232 6 343 334 330 316 239 342 203 146 139 141 96 133 84 59 35 39 18 356 343 84 52 23 348 355 2 11 17
336 337 333 327 324 323 320 316 313 307 303 302 311 313 277 162 53 356 334 332 324 350 44 106 129 143 137 120 113 107 115 90 53 50 22 330 360 85 33 2 347 351 360 9 9
336 337 331 327 325 322 320 318 314 306 298 292 303 311 244 142 1 349 340 336 20 42 54 74 107 109 104 88 59 94 100 106 49 34 31 358 357 188 2 347 346 350 353 357 356
335 335 330 327 325 323 322 321 316 310 290 289 298 275 94 82 354 359 31 17 17 36 81 59 100 217 130 117 100 110 134 158 29 17 27 329 101 27 352 354 354 359 359 357 357
332 332 330 329 326 324 323 321 316 317 304 287 291 250 81 30 3 34 13 81 64 72 86 58 71 88 65 121 114 130 149 178 47 20 4 314 104 8 5 7 10 4 6 7 6
330 331 329 330 327 326 322 318 302 310 289 297 237 258 116 283 58 24 20 76 95 83 69 57 73 81 152 166 147 115 120 76 98 25 28 34 53 14 19 22 18 21 22 17 16
330 330 330 331 330 327 320 297 305 302 232 237 226 149 162 78 341 342 69 82 112 122 93 45 68 104 135 211 165 133 122 98 63 25 50 75 64 48 39 41 37 33 30 29 27
330 330 330 331 331 328 326 236 187 152 49 18 68 79 113 97 293 37 18 121 126 56 101 25 106 85 77 73 97 104 102 104 86 60 85 69 70 59 55 48 41 41 38 37 36
331 330 329 329 328 328 302 33 27 4 109 59 70 97 59 332 85 47 23 111 150 110 129 112 81 91 96 104 103 104 103 102 96 65 111 83 72 66 56 55 50 46 47 42 37
330 330 330 327 321 314 56 54 340 295 142 103 75 104 80 127 55 36 36 85 90 112 109 86 111 121 109 123 111 75 83 89 96 105 118 132 70 50 60 56 49 47 45 43 36
329 332 333 326 291 338 78 357 343 293 178 151 172 115 179 166 80 27 16 16 103 106 97 86 120 86 111 97 303 101 80 90 120 194 99 255 131 51 48 50 46 37 32 28 26
331 333 335 338 322 268 36 339 322 258 219 150 149 71 147 240 127 56 19 84 115 145 229 116 136 108 88 52 307 100 290 80 140 121 157 64 156 71 38 39 29 30 27 21 19
328 329 334 247 267 28 334 235 242 236 223 160 152 164 153 118 86 107 76 75 69 99 91 103 98 51 57 128 30 326 157 143 161 165 177 354 272 102 44 16 12 9 18 20 16
320 321 315 302 4 337 286 208 172 217 152 167 174 176 151 140 107 118 154 144 165 146 140 135 92 114 21 159 145 184 189 160 192 194 66 110 82 84 58 10 16 19 21 24 23
318 315 285 248 310 316 230 165 211 182 176 132 162 153 170 152 129 150 155 137 99 235 149 166 152 185 26 354 70 89 264 299 191 188 103 152 150 127 87 58 33 29 24 28 29
314 289 253 171 184 249 218 202 227 187 158 157 152 176 160 169 183 161 175 135 108 216 198 151 110 122 74 135 266 149 137 29 94 61 236 132 119 157 120 80 55 36 35 30 29
305 281 229 147 164 196 216 248 214 180 156 162 165 197 176 173 171 195 175 166 136 159 271 163 131 160 137 186 86 315 123 177 186 192 210 176 222 129 167 75 42 41 30 30 24
266 233 108 156 186 199 216 237 189 180 164 180 179 158 177 163 182 165 158 158 191 140 171 164 225 145 190 214 157 159 169 178 58 304 269 268 140 98 149 85 351 15 18 16 12
264 220 124 192 185 207 204 210 195 168 186 153 160 124 165 160 158 154 159 142 167 160 149 112 107 131 98 111 262 198 165 231 259 172 232 313 30 137 148 106 332 340 354 357 353
244 217 144 226 198 209 215 201 200 173 184 170 159 173 169 161 133 139 132 131 151 152 159 165 142 128 132 144 191 215 175 172 126 29 221 250 119 162 167 226 306 299 317 334 348
264 199 164 206 228 220 193 191 178 197 177 168 133 135 143 148 123 151 133 150 156 124 75 93 146 300 172 76 137 191 193 199 211 206 239 231 213 180 228 320 301 288 312 332 340
210 240 187 181 214 218 203 187 178 173 208 179 177 199 164 143 143 150 137 134 146 138 137 205 168 189 208 184 194 205 199 204 214 225 225 120 259 288 300 303 288 302 302 315 330
188 226 209 195 198 201 200 218 190 172 170 190 219 181 172 162 178 174 158 167 163 167 166 180 152 179 253 221 226 234 230 232 233 240 248 256 269 277 272 237 258 296 303 313 330
191 280 279 180 181 191 201 197 200 169 194 218 185 160 167 115 99 124 128 131 141 156 157 166 155 176 188 187 262 258 229 216 223 227 231 237 249 187 223 232 267 298 312 316 326